COSMOS 2475 (743)

Last updated on Oct. 24, 2020, 5:55 a.m. UTC

1 37869U 11064C   20297.78998403  .00000046  00000-0  00000-0 0  9993
2 37869  64.5552 142.8765 0019424 257.8922  44.0308  2.13102134 69821
UTC
Height (km)
Latitude
Longitude
Inclination
Orbital Period
UTC large
Height (km)
Speed (km/s)
/
Latitude / Longitude
Inclination (degrees)
Orbital Period (minutes)
Azimuth
Elevation
Range (km)
Doppler Factor
iOS Compass Heading
iOS Angle

Next 30 passes for location: Hong Kong

Rise time Rise Azimuth (degrees) Set time Set Azimuth (degrees) Duration Max altitude (degrees)

No matching passes for this satellites